Weather History for Hamilton Island, Queensland

Change the Weather History Date:

Wednesday, May 1, 2013

  Actual Average Record
Temperature  
Mean Temperature 76 °F -  
Max Temperature 80 °F - - ()
Min Temperature 72 °F - - ()
Cooling Degree Days 11    
Growing Degree Days 26 (Base 50)    
Moisture  
Dew Point 71 °F    
Average Humidity 81    
Maximum Humidity 100    
Minimum Humidity 63    
Precipitation  
Precipitation 0.00 in - - ()
Sea Level Pressure  
Sea Level Pressure 29.99 in    
Wind  
Wind Speed 23 mph ()    
Max Wind Speed 34 mph    
Max Gust Speed 39 mph    
T = Trace of Precipitation, MM = Missing Value Source: Averaged Metar Reports

Daily Weather History Graph

Daily Weather History Graph

Search for Another Location

Airport:

Trip Planner

Search our weather history database for the weather conditions in past years. The results will help you decide how hot, cold, wet, or windy it might be!

Date:

Astronomy

May. 01, 2013 Rise Set
Actual Time 6:20 AM AEST 5:41 PM AEST
Civil Twilight 5:57 AM AEST 6:04 PM AEST
Nautical Twilight 5:31 AM AEST 6:30 PM AEST
Astronomical Twilight 5:05 AM AEST 6:57 PM AEST
Moon 11:04 PM AEST (5/1) 11:25 AM AEST (5/1)
Length of Visible Light 12h 07m
Length of Day
11h 21m
Waning Gibbous, 66% of the Moon is Illuminated
May 1
Waning Gibbous
May 2
Last Quarter
May 10
New
May 18
First Quarter
May 25
Full

Hourly Weather History & Observations

Time (AEST) Temp. Heat Index Dew Point Humidity Pressure Visibility Wind Dir Wind Speed Gust Speed Precip Events Conditions
12:00 AM 75 °F - 74 °F 98% 30.02 in - SE 20.7 mph - -  
12:00 AM 75.2 °F - 75.2 °F 100% 30.01 in - SE 20.7 mph - N/A   Unknown
12:30 AM 75.2 °F - 75.2 °F 100% 30.01 in - ESE 23.0 mph - N/A   Unknown
1:00 AM 75.2 °F - 73.4 °F 94% 30.01 in - ESE 25.3 mph - N/A   Unknown
1:30 AM 75.2 °F - 73.4 °F 94% 29.98 in - ESE 26.5 mph - N/A   Unknown
2:00 AM 75.2 °F - 71.6 °F 89% 29.98 in - East 26.5 mph - N/A   Unknown
2:30 AM 73.4 °F - 73.4 °F 100% 29.98 in - East 23.0 mph - N/A   Unknown
3:00 AM 76 °F - 72 °F 86% 29.96 in - East 29.9 mph - -  
3:00 AM 77.0 °F - 73.4 °F 89% 29.95 in - East 29.9 mph - N/A   Unknown
3:30 AM 75.2 °F - 73.4 °F 94% 29.95 in - ESE 28.8 mph - N/A   Unknown
4:00 AM 77.0 °F - 73.4 °F 89% 29.95 in - ESE 29.9 mph - N/A   Unknown
4:30 AM 77.0 °F - 73.4 °F 89% 29.95 in - East 28.8 mph - N/A   Unknown
5:00 AM 77.0 °F - 73.4 °F 89% 29.95 in - ESE 27.6 mph - N/A   Unknown
5:34 AM 73.4 °F - 71.6 °F 94% 29.98 in - ESE 25.3 mph 39.1 mph N/A   Unknown
6:00 AM 75 °F - 72 °F 87% 29.98 in - ESE 26.5 mph - -  
6:00 AM 75.2 °F - 71.6 °F 89% 29.98 in - ESE 26.5 mph 38.0 mph N/A   Unknown
6:30 AM 77.0 °F - 69.8 °F 78% 29.98 in - East 32.2 mph - N/A   Unknown
7:00 AM 77.0 °F - 69.8 °F 78% 30.01 in - East 31.1 mph - N/A   Unknown
7:30 AM 77.0 °F - 69.8 °F 78% 30.01 in - East 34.5 mph - N/A   Unknown
8:00 AM 77.0 °F - 69.8 °F 78% 30.01 in - East 32.2 mph - N/A   Unknown
8:30 AM 78.8 °F - 68.0 °F 69% 30.01 in - East 32.2 mph - N/A   Unknown
9:00 AM 78 °F - 68 °F 63% 30.02 in - ESE 32.2 mph - -  
9:00 AM 78.8 °F - 68.0 °F 69% 30.01 in - ESE 32.2 mph - N/A   Unknown
9:30 AM 78.8 °F - 68.0 °F 69% 30.04 in - ESE 31.1 mph - N/A   Unknown
10:00 AM 78.8 °F - 69.8 °F 74% 30.04 in - ESE 29.9 mph - N/A   Unknown
10:30 AM 78.8 °F - 69.8 °F 74% 30.04 in - ESE 26.5 mph - N/A   Unknown
11:00 AM 78.8 °F - 68.0 °F 69% 30.01 in - ESE 24.2 mph - N/A   Unknown
11:30 AM 80.6 °F 84.6 °F 71.6 °F 74% 30.01 in - ESE 23.0 mph - N/A   Unknown
12:00 PM 80 °F - 70 °F 64% 30.01 in - ESE 23.0 mph - -  
12:00 PM 80.6 °F 83.9 °F 69.8 °F 70% 30.01 in - ESE 23.0 mph - N/A   Unknown
12:30 PM 80.6 °F 84.6 °F 71.6 °F 74% 29.98 in - ESE 21.9 mph - N/A   Unknown
1:00 PM 78.8 °F - 69.8 °F 74% 29.98 in - ESE 23.0 mph - N/A   Unknown
1:30 PM 78.8 °F - 69.8 °F 74% 29.95 in - ESE 23.0 mph - N/A   Unknown
2:00 PM 77.0 °F - 71.6 °F 83% 29.95 in - SE 21.9 mph - N/A   Unknown
2:30 PM 78.8 °F - 69.8 °F 74% 29.95 in - ESE 20.7 mph - N/A   Unknown
3:00 PM 78 °F - 70 °F 71% 29.95 in - ESE 21.9 mph - -  
3:00 PM 78.8 °F - 69.8 °F 74% 29.95 in - ESE 21.9 mph - N/A   Unknown
3:30 PM 78.8 °F - 68.0 °F 69% 29.95 in - ESE 21.9 mph - N/A   Unknown
4:00 PM 77.0 °F - 69.8 °F 78% 29.95 in - ESE 23.0 mph - N/A   Unknown
4:30 PM 77.0 °F - 68.0 °F 74% 29.95 in - ESE 19.6 mph - N/A   Unknown
5:00 PM 77.0 °F - 69.8 °F 78% 29.95 in - ESE 20.7 mph - N/A   Unknown
5:30 PM 77.0 °F - 69.8 °F 78% 29.98 in - ESE 19.6 mph - N/A   Unknown
6:00 PM 76 °F - 70 °F 77% 29.98 in - SE 19.6 mph - -  
6:00 PM 75.2 °F - 69.8 °F 83% 29.98 in - SE 19.6 mph - N/A   Unknown
6:30 PM 75.2 °F - 71.6 °F 89% 29.98 in - SE 18.4 mph - N/A   Unknown
7:00 PM 75.2 °F - 69.8 °F 83% 30.01 in - ESE 17.3 mph - N/A   Unknown
7:30 PM 75.2 °F - 69.8 °F 83% 30.01 in - ESE 20.7 mph - N/A   Unknown
8:00 PM 75.2 °F - 71.6 °F 89% 30.01 in - ESE 20.7 mph - N/A   Unknown
8:30 PM 75.2 °F - 69.8 °F 83% 30.01 in - ESE 19.6 mph - N/A   Unknown
9:00 PM 76 °F - 71 °F 78% 30.02 in - ESE 20.7 mph - -  
9:00 PM 75.2 °F - 69.8 °F 83% 30.01 in - ESE 20.7 mph - N/A   Unknown
9:30 PM 75.2 °F - 71.6 °F 89% 30.01 in - ESE 18.4 mph - N/A   Unknown
10:00 PM 75.2 °F - 69.8 °F 83% 30.01 in - ESE 19.6 mph - N/A   Unknown
10:30 PM 75.2 °F - 69.8 °F 83% 30.01 in - ESE 19.6 mph - N/A   Unknown
11:00 PM 75.2 °F - 69.8 °F 83% 30.01 in - ESE 19.6 mph - N/A   Unknown
11:30 PM 75.2 °F - 69.8 °F 83% 30.01 in - ESE 18.4 mph - N/A   Unknown